TimeEST,TemperatureF,Dew PointF,Humidity,Sea Level PressureIn,VisibilityMPH,Wind Direction,Wind SpeedMPH,Gust SpeedMPH,PrecipitationIn,Events,Conditions,WindDirDegrees,DateUTC
12:15 AM,39.2,38.7,98,30.35,7.0,Calm,Calm,-,N/A,,Clear,0,2012-12-01 05:15:00
12:35 AM,39.6,38.5,96,30.35,10.0,Calm,Calm,-,N/A,,Clear,0,2012-12-01 05:35:00
12:55 AM,39.2,37.4,93,30.35,10.0,Calm,Calm,-,N/A,,Clear,0,2012-12-01 05:55:00
1:15 AM,38.1,37.8,99,30.35,7.0,Calm,Calm,-,N/A,,Clear,0,2012-12-01 06:15:00
1:35 AM,37.6,37.6,100,30.35,5.0,Calm,Calm,-,N/A,,Clear,0,2012-12-01 06:35:00
1:55 AM,38.1,38.1,100,30.34,7.0,Calm,Calm,-,N/A,,Clear,0,2012-12-01 06:55:00
2:15 AM,37.8,37.8,100,30.34,5.0,Calm,Calm,-,N/A,,Clear,0,2012-12-01 07:15:00
2:35 AM,37.8,37.4,99,30.35,10.0,Calm,Calm,-,N/A,,Clear,0,2012-12-01 07:35:00
3:15 AM,36.9,36.9,100,30.35,7.0,Calm,Calm,-,N/A,,Clear,0,2012-12-01 08:15:00
3:35 AM,35.6,35.6,100,30.35,7.0,Calm,Calm,-,N/A,,Clear,0,2012-12-01 08:35:00
3:55 AM,35.6,35.6,100,30.35,7.0,Calm,Calm,-,N/A,,Clear,0,2012-12-01 08:55:00
4:15 AM,36.0,36.0,100,30.35,7.0,Calm,Calm,-,N/A,,Clear,0,2012-12-01 09:15:00
4:35 AM,35.2,35.2,100,30.35,7.0,Calm,Calm,-,N/A,,Clear,0,2012-12-01 09:35:00
4:55 AM,35.6,35.6,100,30.35,7.0,Calm,Calm,-,N/A,,Clear,0,2012-12-01 09:55:00
5:15 AM,34.9,34.9,100,30.36,5.0,Calm,Calm,-,N/A,,Clear,0,2012-12-01 10:15:00
5:35 AM,35.1,35.1,100,30.36,5.0,Calm,Calm,-,N/A,,Clear,0,2012-12-01 10:35:00
5:55 AM,35.6,35.6,100,30.36,5.0,Calm,Calm,-,N/A,,Scattered Clouds,0,2012-12-01 10:55:00
6:15 AM,35.6,35.6,100,30.36,7.0,Calm,Calm,-,N/A,,Scattered Clouds,0,2012-12-01 11:15:00
6:35 AM,35.6,35.6,100,30.37,7.0,Calm,Calm,-,N/A,,Clear,0,2012-12-01 11:35:00
6:55 AM,33.8,33.8,100,30.37,5.0,Calm,Calm,-,N/A,,Clear,0,2012-12-01 11:55:00
7:15 AM,33.8,33.8,100,30.38,5.0,Calm,Calm,-,N/A,,Clear,0,2012-12-01 12:15:00
7:35 AM,34.7,34.7,100,30.39,5.0,Calm,Calm,-,N/A,,Clear,0,2012-12-01 12:35:00
7:55 AM,35.8,35.8,100,30.40,5.0,Calm,Calm,-,N/A,,Clear,0,2012-12-01 12:55:00
8:15 AM,38.3,37.6,97,30.41,7.0,Calm,Calm,-,N/A,,Clear,0,2012-12-01 13:15:00
8:35 AM,41.4,39.7,94,30.41,10.0,Calm,Calm,-,N/A,,Clear,0,2012-12-01 13:35:00
8:55 AM,44.1,41.7,91,30.41,10.0,Calm,Calm,-,N/A,,Clear,0,2012-12-01 13:55:00
9:15 AM,48.0,43.7,85,30.42,10.0,Calm,Calm,-,N/A,,Clear,0,2012-12-01 14:15:00
9:35 AM,51.4,43.5,74,30.42,10.0,Calm,Calm,-,N/A,,Clear,0,2012-12-01 14:35:00
9:55 AM,53.6,42.8,67,30.42,10.0,Calm,Calm,-,N/A,,Clear,0,2012-12-01 14:55:00
10:15 AM,56.3,42.6,60,30.42,10.0,Calm,Calm,-,N/A,,Clear,0,2012-12-01 15:15:00
10:35 AM,57.2,43.7,61,30.42,10.0,West,3.5,-,N/A,,Clear,280,2012-12-01 15:35:00
10:55 AM,59.0,43.2,56,30.42,10.0,WSW,3.5,-,N/A,,Clear,250,2012-12-01 15:55:00
11:15 AM,59.4,43.0,55,30.41,10.0,WSW,4.6,-,N/A,,Clear,240,2012-12-01 16:15:00
11:35 AM,61.0,43.3,52,30.40,10.0,WSW,4.6,-,N/A,,Clear,240,2012-12-01 16:35:00
11:55 AM,61.0,44.1,54,30.39,10.0,SW,3.5,-,N/A,,Clear,230,2012-12-01 16:55:00
12:15 PM,61.5,44.6,54,30.38,10.0,WSW,3.5,-,N/A,,Clear,240,2012-12-01 17:15:00
12:35 PM,63.1,45.5,53,30.37,10.0,SW,4.6,-,N/A,,Clear,220,2012-12-01 17:35:00
12:55 PM,64.6,46.2,51,30.36,10.0,Calm,Calm,-,N/A,,Clear,0,2012-12-01 17:55:00
1:15 PM,64.4,46.2,52,30.36,10.0,West,3.5,-,N/A,,Clear,260,2012-12-01 18:15:00
1:35 PM,65.5,46.8,51,30.36,10.0,West,3.5,-,N/A,,Clear,270,2012-12-01 18:35:00
1:55 PM,65.3,46.9,51,30.35,10.0,WNW,4.6,-,N/A,,Clear,290,2012-12-01 18:55:00
2:15 PM,65.8,47.1,51,30.34,10.0,SW,4.6,-,N/A,,Clear,220,2012-12-01 19:15:00
2:35 PM,66.2,47.3,51,30.33,10.0,Calm,Calm,-,N/A,,Clear,0,2012-12-01 19:35:00
2:55 PM,66.2,48.2,52,30.33,10.0,SW,4.6,-,N/A,,Clear,230,2012-12-01 19:55:00
3:15 PM,66.2,46.9,50,30.33,10.0,WNW,3.5,-,N/A,,Clear,290,2012-12-01 20:15:00
3:35 PM,66.0,47.3,51,30.33,10.0,WSW,3.5,-,N/A,,Clear,240,2012-12-01 20:35:00
3:55 PM,65.7,47.7,52,30.33,10.0,Calm,Calm,-,N/A,,Clear,0,2012-12-01 20:55:00
4:15 PM,65.3,47.7,53,30.33,10.0,Calm,Calm,-,N/A,,Clear,0,2012-12-01 21:15:00
4:35 PM,64.2,48.2,56,30.34,10.0,Calm,Calm,-,N/A,,Clear,0,2012-12-01 21:35:00
4:55 PM,60.3,48.4,65,30.34,10.0,Calm,Calm,-,N/A,,Clear,0,2012-12-01 21:55:00
5:15 PM,57.2,48.6,73,30.34,10.0,Calm,Calm,-,N/A,,Clear,0,2012-12-01 22:15:00
5:35 PM,54.9,47.1,75,30.35,10.0,Calm,Calm,-,N/A,,Clear,0,2012-12-01 22:35:00
5:55 PM,53.4,46.8,78,30.35,10.0,Calm,Calm,-,N/A,,Clear,0,2012-12-01 22:55:00
6:15 PM,51.8,46.4,82,30.36,10.0,Calm,Calm,-,N/A,,Clear,0,2012-12-01 23:15:00
6:35 PM,51.8,46.4,82,30.37,10.0,Calm,Calm,-,N/A,,Clear,0,2012-12-01 23:35:00
6:55 PM,49.6,45.9,87,30.37,10.0,Calm,Calm,-,N/A,,Clear,0,2012-12-01 23:55:00
7:15 PM,48.9,45.7,89,30.38,10.0,Calm,Calm,-,N/A,,Clear,0,2012-12-02 00:15:00
7:35 PM,47.7,45.0,90,30.38,10.0,Calm,Calm,-,N/A,,Clear,0,2012-12-02 00:35:00
7:55 PM,46.9,44.8,92,30.39,10.0,ESE,3.5,-,N/A,,Clear,120,2012-12-02 00:55:00
8:15 PM,52.0,47.5,85,30.38,10.0,Calm,Calm,-,N/A,,Clear,0,2012-12-02 01:15:00
8:35 PM,52.0,48.0,86,30.38,10.0,Calm,Calm,-,N/A,,Clear,0,2012-12-02 01:35:00
8:55 PM,51.6,48.2,88,30.39,10.0,Calm,Calm,-,N/A,,Clear,0,2012-12-02 01:55:00
9:15 PM,50.7,48.4,92,30.39,10.0,Calm,Calm,-,N/A,,Clear,0,2012-12-02 02:15:00
9:35 PM,48.9,47.7,95,30.39,10.0,Calm,Calm,-,N/A,,Clear,0,2012-12-02 02:35:00
9:55 PM,48.0,47.5,98,30.39,7.0,Calm,Calm,-,N/A,,Clear,0,2012-12-02 02:55:00
10:15 PM,47.5,46.6,97,30.39,10.0,Calm,Calm,-,N/A,,Clear,0,2012-12-02 03:15:00
10:35 PM,46.4,46.4,100,30.39,5.0,Calm,Calm,-,N/A,,Clear,0,2012-12-02 03:35:00
10:55 PM,45.1,45.1,100,30.39,4.0,Calm,Calm,-,N/A,,Clear,0,2012-12-02 03:55:00
11:15 PM,44.8,44.8,100,30.39,4.0,Calm,Calm,-,N/A,,Clear,0,2012-12-02 04:15:00
11:35 PM,44.1,44.1,100,30.39,5.0,Calm,Calm,-,N/A,,Clear,0,2012-12-02 04:35:00
11:55 PM,43.5,43.5,100,30.39,3.0,Calm,Calm,-,N/A,,Clear,0,2012-12-02 04:55:00